TimeEDT,TemperatureF,Dew PointF,Humidity,Sea Level PressureIn,VisibilityMPH,Wind Direction,Wind SpeedMPH,Gust SpeedMPH,PrecipitationIn,Events,Conditions,WindDirDegrees,DateUTC
12:15 AM,64.6,62.1,92,30.23,10.0,Calm,Calm,-,N/A,,Scattered Clouds,0,2013-05-31 04:15:00
12:35 AM,65.1,62.4,91,30.23,10.0,NW,3.5,-,N/A,,Mostly Cloudy,320,2013-05-31 04:35:00
12:55 AM,65.3,62.1,89,30.23,10.0,NW,4.6,-,N/A,,Overcast,320,2013-05-31 04:55:00
1:15 AM,65.3,61.9,89,30.24,10.0,Calm,Calm,-,N/A,,Overcast,0,2013-05-31 05:15:00
1:35 AM,64.4,61.9,92,30.24,10.0,Calm,Calm,-,N/A,,Overcast,0,2013-05-31 05:35:00
1:55 AM,64.4,61.7,91,30.24,10.0,South,3.5,-,N/A,,Mostly Cloudy,170,2013-05-31 05:55:00
2:15 AM,65.1,61.7,89,30.24,10.0,Calm,Calm,-,N/A,,Scattered Clouds,0,2013-05-31 06:15:00
2:35 AM,63.5,61.7,94,30.24,10.0,Calm,Calm,-,N/A,,Scattered Clouds,0,2013-05-31 06:35:00
2:55 AM,65.3,61.3,87,30.23,10.0,Calm,Calm,-,N/A,,Scattered Clouds,0,2013-05-31 06:55:00
3:15 AM,63.0,60.8,93,30.23,10.0,Calm,Calm,-,N/A,,Clear,0,2013-05-31 07:15:00
3:35 AM,63.7,61.2,91,30.22,10.0,Calm,Calm,-,N/A,,Clear,0,2013-05-31 07:35:00
3:55 AM,63.1,61.0,93,30.22,10.0,Calm,Calm,-,N/A,,Clear,0,2013-05-31 07:55:00
4:15 AM,61.2,60.3,97,30.22,10.0,Calm,Calm,-,N/A,,Scattered Clouds,0,2013-05-31 08:15:00
4:35 AM,62.1,60.4,94,30.22,10.0,South,4.6,-,N/A,,Scattered Clouds,180,2013-05-31 08:35:00
4:55 AM,62.1,60.4,94,30.22,10.0,Calm,Calm,-,N/A,,Scattered Clouds,0,2013-05-31 08:55:00
5:15 AM,61.0,59.9,96,30.22,10.0,Calm,Calm,-,N/A,,Scattered Clouds,0,2013-05-31 09:15:00
5:35 AM,61.5,60.3,96,30.22,10.0,Calm,Calm,-,N/A,,Scattered Clouds,0,2013-05-31 09:35:00
5:55 AM,61.5,59.9,94,30.23,10.0,South,4.6,-,N/A,,Scattered Clouds,170,2013-05-31 09:55:00
6:15 AM,62.8,60.8,93,30.23,10.0,Calm,Calm,-,N/A,,Overcast,0,2013-05-31 10:15:00
6:35 AM,62.6,60.8,94,30.23,10.0,Calm,Calm,-,N/A,,Overcast,0,2013-05-31 10:35:00
6:55 AM,61.9,60.6,96,30.24,10.0,Calm,Calm,-,N/A,,Mostly Cloudy,0,2013-05-31 10:55:00
7:15 AM,63.5,61.5,93,30.24,10.0,Calm,Calm,-,N/A,,Mostly Cloudy,0,2013-05-31 11:15:00
7:35 AM,64.8,62.4,92,30.25,10.0,Calm,Calm,-,N/A,,Mostly Cloudy,0,2013-05-31 11:35:00
7:55 AM,65.3,62.8,92,30.26,10.0,Calm,Calm,-,N/A,,Overcast,0,2013-05-31 11:55:00
8:15 AM,66.2,63.5,91,30.26,10.0,Calm,Calm,-,N/A,,Overcast,0,2013-05-31 12:15:00
8:35 AM,66.6,63.9,91,30.26,10.0,South,3.5,-,N/A,,Overcast,190,2013-05-31 12:35:00
8:55 AM,68.0,64.6,89,30.26,10.0,SSW,9.2,-,N/A,,Mostly Cloudy,200,2013-05-31 12:55:00
9:15 AM,70.2,65.5,85,30.26,10.0,SSW,10.4,-,N/A,,Scattered Clouds,200,2013-05-31 13:15:00
9:35 AM,72.1,65.5,79,30.26,10.0,SSW,9.2,-,N/A,,Clear,200,2013-05-31 13:35:00
9:55 AM,73.6,64.2,72,30.26,10.0,SSW,6.9,-,N/A,,Clear,210,2013-05-31 13:55:00
10:15 AM,74.5,63.9,69,30.26,10.0,SW,8.1,-,N/A,,Scattered Clouds,220,2013-05-31 14:15:00
10:35 AM,75.4,64.2,68,30.26,10.0,SW,4.6,-,N/A,,Scattered Clouds,230,2013-05-31 14:35:00
10:55 AM,75.0,64.2,69,30.26,10.0,WSW,4.6,-,N/A,,Mostly Cloudy,240,2013-05-31 14:55:00
11:15 AM,76.1,64.0,66,30.26,10.0,South,6.9,-,N/A,,Mostly Cloudy,190,2013-05-31 15:15:00
11:35 AM,77.7,63.5,61,30.26,10.0,SW,9.2,-,N/A,,Mostly Cloudy,230,2013-05-31 15:35:00
11:55 AM,77.0,61.3,58,30.26,10.0,SSW,11.5,18.4,N/A,,Scattered Clouds,200,2013-05-31 15:55:00
12:15 PM,78.8,61.7,56,30.25,10.0,South,8.1,19.6,N/A,,Clear,180,2013-05-31 16:15:00
12:35 PM,79.7,62.4,55,30.24,10.0,South,10.4,21.9,N/A,,Scattered Clouds,190,2013-05-31 16:35:00
12:55 PM,79.3,62.8,57,30.23,10.0,South,10.4,21.9,N/A,,Clear,180,2013-05-31 16:55:00
1:15 PM,79.9,62.6,55,30.23,10.0,South,11.5,18.4,N/A,,Scattered Clouds,190,2013-05-31 17:15:00
1:35 PM,80.8,62.4,53,30.22,10.0,South,10.4,18.4,N/A,,Scattered Clouds,190,2013-05-31 17:35:00
1:55 PM,79.5,62.4,56,30.21,10.0,South,10.4,20.7,N/A,,Mostly Cloudy,190,2013-05-31 17:55:00
2:15 PM,81.1,63.3,55,30.21,10.0,South,4.6,20.7,N/A,,Mostly Cloudy,190,2013-05-31 18:15:00
2:35 PM,81.0,62.4,53,30.20,10.0,South,11.5,20.7,N/A,,Scattered Clouds,180,2013-05-31 18:35:00
2:55 PM,81.3,62.2,52,30.19,10.0,South,12.7,21.9,N/A,,Scattered Clouds,170,2013-05-31 18:55:00
3:15 PM,82.9,63.7,52,30.18,10.0,SSW,5.8,-,N/A,,Scattered Clouds,210,2013-05-31 19:15:00
3:35 PM,82.2,62.8,52,30.17,10.0,South,9.2,19.6,N/A,,Scattered Clouds,180,2013-05-31 19:35:00
3:55 PM,81.0,62.1,52,30.17,10.0,South,10.4,20.7,N/A,,Scattered Clouds,190,2013-05-31 19:55:00
4:15 PM,81.7,62.6,52,30.16,10.0,SSE,10.4,20.7,N/A,,Scattered Clouds,160,2013-05-31 20:15:00
4:35 PM,82.8,63.0,51,30.16,10.0,South,5.8,-,N/A,,Mostly Cloudy,190,2013-05-31 20:35:00
4:55 PM,79.9,62.1,54,30.16,10.0,SSW,9.2,-,N/A,,Mostly Cloudy,200,2013-05-31 20:55:00
5:15 PM,81.9,61.7,50,30.15,10.0,South,5.8,-,N/A,,Scattered Clouds,180,2013-05-31 21:15:00
5:35 PM,81.9,62.1,51,30.15,10.0,South,5.8,21.9,N/A,,Scattered Clouds,190,2013-05-31 21:35:00
5:55 PM,82.2,61.9,50,30.14,10.0,SW,5.8,20.7,N/A,,Scattered Clouds,230,2013-05-31 21:55:00
6:15 PM,82.4,61.7,49,30.14,10.0,South,6.9,-,N/A,,Scattered Clouds,190,2013-05-31 22:15:00
6:35 PM,80.8,61.3,51,30.14,10.0,SSW,5.8,-,N/A,,Scattered Clouds,210,2013-05-31 22:35:00
6:55 PM,81.0,61.5,51,30.14,10.0,South,5.8,-,N/A,,Clear,190,2013-05-31 22:55:00
7:15 PM,80.2,62.1,54,30.14,10.0,Calm,Calm,-,N/A,,Clear,0,2013-05-31 23:15:00
7:35 PM,79.7,61.9,54,30.14,10.0,SSW,3.5,-,N/A,,Clear,200,2013-05-31 23:35:00
7:55 PM,79.0,61.9,56,30.14,10.0,Calm,Calm,-,N/A,,Clear,0,2013-05-31 23:55:00
8:15 PM,78.1,62.2,58,30.14,10.0,Calm,Calm,-,N/A,,Clear,0,2013-06-01 00:15:00
8:35 PM,76.6,62.6,62,30.14,10.0,Calm,Calm,-,N/A,,Clear,0,2013-06-01 00:35:00
8:55 PM,75.6,62.8,64,30.14,10.0,Calm,Calm,-,N/A,,Scattered Clouds,0,2013-06-01 00:55:00
9:15 PM,75.6,63.3,66,30.14,10.0,Calm,Calm,-,N/A,,Clear,0,2013-06-01 01:15:00
9:35 PM,73.4,63.3,71,30.14,10.0,SSE,4.6,-,N/A,,Clear,160,2013-06-01 01:35:00
9:55 PM,73.4,63.5,71,30.15,10.0,SSE,3.5,-,N/A,,Clear,160,2013-06-01 01:55:00
10:15 PM,73.6,63.5,71,30.15,10.0,SSE,3.5,-,N/A,,Clear,150,2013-06-01 02:15:00
10:35 PM,73.0,63.5,72,30.15,10.0,SSE,3.5,-,N/A,,Clear,150,2013-06-01 02:35:00
10:55 PM,72.3,63.5,74,30.15,10.0,Calm,Calm,-,N/A,,Clear,0,2013-06-01 02:55:00
11:15 PM,70.0,63.9,81,30.15,10.0,Calm,Calm,-,N/A,,Clear,0,2013-06-01 03:15:00
11:35 PM,67.8,63.9,87,30.15,10.0,Calm,Calm,-,N/A,,Scattered Clouds,0,2013-06-01 03:35:00
11:55 PM,67.1,64.2,90,30.15,10.0,NW,4.6,-,N/A,,Mostly Cloudy,310,2013-06-01 03:55:00